This is the latest recevied weather packets stored in our database for station/object WB4ROX. If no packets are shown the sender has not sent any weather packets the latest 1 day(s).
| Time | Temp. | Humidity | Pressure | Rain* | Wind** | Luminosity | Snow |
|---|---|---|---|---|---|---|---|
| 1777991708 | 15° C | 38% | 1019.7 hPa | 0 mm | 0.45 m/s, 96° | 623 W/m² | - |
| 1777991405 | 14.44° C | 40% | 1019.7 hPa | 0 mm | 0 m/s | 563 W/m² | - |
| 1777991102 | 15° C | 41% | 1019.6 hPa | 0 mm | 0.45 m/s, 81° | 460 W/m² | - |
| 1777990799 | 14.44° C | 42% | 1019.6 hPa | 0 mm | 0.89 m/s, 66° | 547 W/m² | - |
| 1777990496 | 13.89° C | 43% | 1019.7 hPa | 0 mm | 0.89 m/s, 73° | 510 W/m² | - |
| 1777990193 | 13.33° C | 44% | 1019.2 hPa | 0 mm | 0.45 m/s, 70° | 471 W/m² | - |
| 1777989890 | 13.33° C | 44% | 1019.7 hPa | 0 mm | 0.89 m/s, 55° | 469 W/m² | - |
| 1777989586 | 13.33° C | 43% | 1019.4 hPa | 0 mm | 0.45 m/s, 282° | 452 W/m² | - |
| 1777989283 | 13.33° C | 44% | 1019.6 hPa | 0 mm | 0 m/s | 433 W/m² | - |
| 1777988979 | 13.33° C | 45% | 1019.6 hPa | 0 mm | 1.34 m/s, 90° | 451 W/m² | - |
| 1777988676 | 13.33° C | 46% | 1019.4 hPa | 0 mm | 0.89 m/s, 275° | 420 W/m² | - |
| 1777988372 | 12.78° C | 46% | 1019.3 hPa | 0 mm | 0.89 m/s, 80° | 391 W/m² | - |
| 1777988070 | 12.78° C | 47% | 1019.1 hPa | 0 mm | 0.45 m/s, 75° | 369 W/m² | - |
| 1777987765 | 12.78° C | 47% | 1019.3 hPa | 0 mm | 0.45 m/s, 107° | 318 W/m² | - |
| 1777987462 | 12.78° C | 48% | 1019.3 hPa | 0 mm | 0 m/s | 348 W/m² | - |
| 1777987160 | 11.67° C | 50% | 1019.3 hPa | 0 mm | 0 m/s | 338 W/m² | - |
| 1777986857 | 11.67° C | 51% | 1019.3 hPa | 0 mm | 0.45 m/s, 82° | 216 W/m² | - |
| 1777986555 | 11.67° C | 52% | 1019.3 hPa | 0 mm | 0.45 m/s, 268° | 184 W/m² | - |
| 1777986253 | 11.11° C | 53% | 1019 hPa | 0 mm | 0.45 m/s, 114° | 130 W/m² | - |
| 1777985949 | 11.11° C | 53% | 1019 hPa | 0 mm | 0.89 m/s, 52° | 88 W/m² | - |
| 1777985647 | 11.11° C | 52% | 1019.4 hPa | 0 mm | 0.45 m/s, 109° | 89 W/m² | - |
| 1777985343 | 11.11° C | 53% | 1019.2 hPa | 0 mm | 0.45 m/s, 111° | 141 W/m² | - |
| 1777985040 | 11.11° C | 53% | 1019.2 hPa | 0 mm | 0.89 m/s, 47° | 123 W/m² | - |
| 1777984736 | 10.56° C | 56% | 1019.1 hPa | 0 mm | 0 m/s | 96 W/m² | - |
| 1777984433 | 10.56° C | 57% | 1018.9 hPa | 0 mm | 0.45 m/s, 33° | 81 W/m² | - |
* Rain latest hour (hover to see other rain measurements)
** Current wind speed in m/s (hover to see current wind gust speed)